Location: ??????
(38.0677°N, 22.9870°E)
Time: 11:21:52
(UTC+00:00)

Cosmos 1025 Rocket - Pass Details

Date: 23 May 2024
Orbit: 589 x 614 km, 82.5° (Epoch: 18 June)

Event Time Altitude Azimuth Distance (km) Brightness Sun altitude
Exits shadow 02:38:29 - 211° (SSW) 2,376 5.5 -6.4°
Reaches altitude 10° 02:39:35 10° 217° (SW) 1,967 5.0 -6.3°
Maximum altitude 02:43:33 34° 282° (WNW) 1,023 3.8 -5.6°
Drops below altitude 10° 02:47:33 10° 348° (NNW) 1,981 5.9 -4.9°
Sets 02:49:58 0° 358° (N) 2,890 6.9 -4.5°
